Location: Unspecified
(0.0000°N, 0.0000°E)
Time: 06:52:04
(UTC+00:00)

Courier 1B - All Passes

Search period start: 28 February 2015 00:00
Search period end: 10 March 2015 00:00
Orbit: 963 x 1209 km, 28.3° (Epoch: 26 February)

Date Brightness Start Highest point End Pass type
(mag) Time Alt. Az. Time Alt. Az. Time Alt. Az.
28 Feb - 01:14:24 10° SW 01:20:56 39° SSE 01:27:54 10° E night (unlit)
28 Feb - 03:08:00 10° WSW 03:15:19 65° NNW 03:23:01 10° NE visible
28 Feb - 05:04:33 10° WNW 05:10:14 21° NNW 05:15:50 10° NNE visible
28 Feb - 10:57:47 10° N 10:59:40 11° NNE 11:01:46 10° NE daylight
28 Feb - 12:48:39 10° NW 12:55:01 33° NNE 13:01:06 10° E daylight
28 Feb - 14:42:20 10° WNW 14:49:20 73° SSW 14:55:57 10° SE daylight
28 Feb - 16:38:50 10° WSW 16:43:39 20° SSW 16:48:13 10° SSE daylight
01 Mar - 00:21:14 10° SSW 00:27:00 28° SSE 00:33:11 10° E night (unlit)
01 Mar - 02:14:09 10° WSW 02:21:24 87° NNW 02:29:05 10° ENE visible
01 Mar - 04:09:44 10° W 04:16:03 28° NNW 04:22:28 10° NNE visible
01 Mar - 11:55:12 10° NNW 12:01:00 25° NNE 12:06:40 10° ENE daylight
01 Mar - 13:48:21 10° WNW 13:55:34 81° NNE 14:02:20 10° ESE daylight
01 Mar - 15:43:58 10° W 15:49:46 28° SSW 15:55:15 10° SSE daylight
01 Mar - 23:28:16 10° SSW 23:33:02 20° SSE 23:38:09 10° ESE night (unlit)
02 Mar - 01:20:30 10° SW 01:27:31 69° SSE 01:35:00 10° ENE night (unlit)
02 Mar - 03:15:15 10° W 03:21:58 37° NNW 03:28:56 10° NE visible
02 Mar - 05:13:59 10° NW 05:17:22 13° NNW 05:20:32 10° N visible
02 Mar - 11:01:53 10° NNW 11:06:52 19° NNE 11:11:53 10° ENE daylight
02 Mar - 12:54:30 10° NW 13:01:44 59° NNE 13:08:31 10° ESE daylight
02 Mar - 14:49:23 10° W 14:55:56 40° SSW 15:02:06 10° SE daylight
02 Mar - 16:48:39 10° SW 16:50:42 11° SSW 16:52:28 10° S daylight
02 Mar - 22:35:42 10° S 22:39:01 14° SSE 22:42:39 10° SE night (unlit)
03 Mar - 00:27:03 10° SW 00:33:40 49° SSE 00:40:44 10° ENE night (unlit)
03 Mar - 02:21:04 10° WSW 02:27:59 50° NNW 02:35:16 10° NE visible
03 Mar - 04:18:23 10° WNW 04:23:04 17° NNW 04:27:36 10° NNE visible
03 Mar - 10:08:46 10° N 10:12:38 15° NNE 10:16:40 10° NE daylight
03 Mar - 12:00:47 10° NW 12:07:49 43° NNE 12:14:30 10° E daylight
03 Mar - 13:55:02 10° WNW 14:02:07 56° SSW 14:08:46 10° SE daylight
03 Mar - 15:52:32 10° WSW 15:56:39 16° SSW 16:00:28 10° SSE daylight
03 Mar - 23:33:47 10° SW 23:39:49 35° SSE 23:46:15 10° E night (unlit)
04 Mar - 01:27:07 10° WSW 01:34:03 68° NNW 01:41:28 10° NE night (unlit)
04 Mar - 03:23:21 10° WNW 03:28:50 22° NNW 03:34:22 10° NNE visible
04 Mar - 09:16:08 10° N 09:18:18 11° NNE 09:20:42 10° NE daylight
04 Mar - 11:07:11 10° NW 11:13:49 32° NNE 11:20:14 10° E daylight
04 Mar - 13:00:52 10° WNW 13:08:18 79° SSW 13:15:16 10° SE daylight
04 Mar - 14:57:16 10° WSW 15:02:40 23° SSW 15:07:44 10° SSE daylight
04 Mar - 22:40:41 10° SSW 22:45:57 25° SSE 22:51:32 10° E night (unlit)
05 Mar - 00:33:22 10° WSW 00:40:13 88° SSE 00:47:32 10° ENE night (unlit)
05 Mar - 02:28:41 10° W 02:34:44 28° NNW 02:40:58 10° NNE visible
05 Mar - 10:13:42 10° NNW 10:19:42 25° NNE 10:25:40 10° ENE daylight
05 Mar - 12:06:51 10° NW 12:14:26 77° NNE 12:21:34 10° ESE daylight
05 Mar - 14:02:23 10° W 14:08:45 32° SSW 14:14:43 10° SSE daylight
05 Mar - 21:47:51 10° SSW 21:52:01 18° SSE 21:56:29 10° ESE visible
05 Mar - 23:39:49 10° SW 23:46:26 64° SSE 23:53:28 10° ENE night (unlit)
06 Mar - 01:34:20 10° W 01:40:44 38° NNW 01:47:26 10° NE night (unlit)
06 Mar - 03:32:47 10° NW 03:35:59 13° NNW 03:39:01 10° N visible
06 Mar - 09:20:23 10° NNW 09:25:31 19° NNE 09:30:45 10° ENE daylight
06 Mar - 11:12:59 10° NW 11:20:30 57° NNE 11:27:40 10° ESE daylight
06 Mar - 13:07:48 10° W 13:14:51 44° SSW 13:21:28 10° SE daylight
06 Mar - 15:06:29 10° SW 15:09:39 13° SSW 15:12:31 10° S daylight
06 Mar - 20:55:28 10° S 20:58:01 13° SSE 21:00:50 10° SE visible
06 Mar - 22:46:25 10° SW 22:52:39 45° SSE 22:59:13 10° E night (unlit)
07 Mar - 00:40:15 10° WSW 00:46:49 51° NNW 00:53:47 10° NE night (unlit)
07 Mar - 02:37:20 10° WNW 02:41:44 17° NNW 02:46:05 10° NNE visible
07 Mar - 08:27:20 10° N 08:31:13 15° NNE 08:35:20 10° NE daylight
07 Mar - 10:19:15 10° NW 10:26:31 42° NNE 10:33:32 10° E daylight
07 Mar - 12:13:26 10° WNW 12:20:58 62° SSW 12:28:03 10° SE daylight
07 Mar - 14:10:42 10° WSW 14:15:34 18° SSW 14:20:05 10° SSE daylight
07 Mar - 21:53:12 10° SSW 21:58:52 32° SSE 22:04:46 10° E visible
07 Mar - 23:46:23 10° WSW 23:53:00 71° NNW 00:00:01 10° NE night (unlit)
08 Mar - 01:42:24 10° WNW 01:47:36 22° NNW 01:52:52 10° NNE night (unlit)
08 Mar - 07:34:56 10° N 07:36:51 11° NNE 07:39:04 10° NNE daylight
08 Mar - 09:25:41 10° NNW 09:32:26 32° NNE 09:39:07 10° E daylight
08 Mar - 11:19:16 10° WNW 11:27:03 84° SSW 11:34:27 10° ESE daylight
08 Mar - 13:15:30 10° W 13:21:33 26° SSW 13:27:12 10° SSE daylight
08 Mar - 21:00:08 10° SSW 21:05:01 23° SSE 21:10:06 10° ESE visible
08 Mar - 22:52:41 10° WSW 22:59:15 83° SSE 23:06:09 10° ENE night (unlit)
09 Mar - 00:47:51 10° W 00:53:35 28° NNW 00:59:30 10° NNE night (unlit)
09 Mar - 08:32:17 10° NNW 08:38:17 24° NNE 08:44:23 10° ENE daylight
09 Mar - 10:25:17 10° NW 10:33:06 73° NNE 10:40:38 10° ESE daylight
09 Mar - 12:20:40 10° W 12:27:33 35° SSW 12:34:03 10° SE daylight
09 Mar - 14:21:01 10° SSW 14:22:40 11° SSW 14:24:01 10° S daylight
09 Mar - 20:07:18 10° SSW 20:11:05 16° SSE 20:15:04 10° ESE visible
09 Mar - 21:59:10 10° SW 22:05:31 59° SSE 22:12:08 10° ENE visible
